Time,TemperatureF,DewpointF,PressureIn,WindDirection,WindDirectionDegrees,WindSpeedMPH,WindSpeedGustMPH,Humidity,HourlyPrecipIn,Conditions,Clouds,dailyrainin,SoftwareType,DateUTC
2013-02-16 00:02:00,39.0,30.0,29.92,NNW,331,1.0,5.0,71,0.00,,,0.01,,2013-02-16 05:02:00,
2013-02-16 00:12:00,39.0,30.0,29.92,NNW,331,1.0,5.0,71,0.00,,,0.01,,2013-02-16 05:12:00,
2013-02-16 00:22:00,38.0,30.0,29.91,WNW,290,0.0,4.0,74,0.00,,,0.00,,2013-02-16 05:22:00,
2013-02-16 00:32:00,37.0,30.0,29.92,NNW,329,0.0,3.0,77,0.00,,,0.00,,2013-02-16 05:32:00,
2013-02-16 00:42:00,37.0,30.0,29.92,NNW,329,0.0,3.0,77,0.00,,,0.00,,2013-02-16 05:42:00,
2013-02-16 00:52:00,37.0,31.0,29.92,NNW,334,1.0,2.0,78,0.00,,,0.00,,2013-02-16 05:52:00,
2013-02-16 01:02:00,36.0,30.0,29.92,NW,326,0.0,5.0,80,0.01,,,0.01,,2013-02-16 06:02:00,
2013-02-16 01:11:00,36.0,30.0,29.92,NW,326,0.0,5.0,80,0.01,,,0.01,,2013-02-16 06:11:00,
2013-02-16 01:21:00,36.0,31.0,29.92,East,89,0.0,1.0,81,0.01,,,0.01,,2013-02-16 06:21:00,
2013-02-16 01:32:00,35.0,30.0,29.91,East,89,0.0,0.0,81,0.00,,,0.01,,2013-02-16 06:32:00,
2013-02-16 01:42:00,35.0,30.0,29.91,East,89,0.0,0.0,81,0.00,,,0.01,,2013-02-16 06:42:00,
2013-02-16 01:52:00,35.0,30.0,29.92,East,89,0.0,0.0,82,0.00,,,0.01,,2013-02-16 06:52:00,
2013-02-16 02:02:00,34.0,29.0,29.92,NNE,17,0.0,3.0,83,0.01,,,0.02,,2013-02-16 07:02:00,
2013-02-16 02:11:00,34.0,29.0,29.92,NNE,17,0.0,3.0,83,0.01,,,0.02,,2013-02-16 07:11:00,
2013-02-16 02:21:00,34.0,29.0,29.92,NNE,17,0.0,3.0,83,0.01,,,0.02,,2013-02-16 07:21:00,
2013-02-16 02:32:00,34.0,30.0,29.91,NNE,23,1.0,4.0,85,0.00,,,0.02,,2013-02-16 07:32:00,
2013-02-16 02:42:00,34.0,30.0,29.91,NNE,23,1.0,4.0,85,0.00,,,0.02,,2013-02-16 07:42:00,
2013-02-16 02:52:00,34.0,30.0,29.91,NNE,23,1.0,4.0,85,0.00,,,0.02,,2013-02-16 07:52:00,
2013-02-16 03:01:00,33.0,30.0,29.90,NE,36,2.0,5.0,87,0.01,,,0.03,,2013-02-16 08:01:00,
2013-02-16 03:11:00,33.0,30.0,29.90,NE,36,2.0,5.0,87,0.01,,,0.03,,2013-02-16 08:11:00,
2013-02-16 03:21:00,33.0,30.0,29.90,NE,41,1.0,5.0,87,0.01,,,0.03,,2013-02-16 08:21:00,
2013-02-16 03:32:00,33.0,30.0,29.90,NE,36,3.0,6.0,88,0.00,,,0.03,,2013-02-16 08:32:00,
2013-02-16 03:42:00,33.0,30.0,29.90,NE,36,3.0,6.0,88,0.00,,,0.03,,2013-02-16 08:42:00,
2013-02-16 03:52:00,33.0,30.0,29.89,NE,34,1.0,5.0,88,0.00,,,0.03,,2013-02-16 08:52:00,
2013-02-16 04:01:00,33.0,30.0,29.89,NNE,29,2.0,4.0,89,0.00,,,0.03,,2013-02-16 09:01:00,
2013-02-16 04:11:00,33.0,30.0,29.89,NNE,29,2.0,4.0,89,0.00,,,0.03,,2013-02-16 09:11:00,
2013-02-16 04:21:00,32.0,29.0,29.88,NE,53,2.0,5.0,89,0.00,,,0.03,,2013-02-16 09:21:00,
2013-02-16 04:32:00,32.0,29.0,29.88,NE,38,2.0,7.0,89,0.00,,,0.03,,2013-02-16 09:32:00,
2013-02-16 04:42:00,32.0,29.0,29.88,NE,38,2.0,7.0,89,0.00,,,0.03,,2013-02-16 09:42:00,
2013-02-16 04:51:00,32.0,29.0,29.89,NNE,28,3.0,5.0,89,0.00,,,0.03,,2013-02-16 09:51:00,
2013-02-16 05:01:00,32.0,29.0,29.88,NNE,29,2.0,6.0,89,0.00,,,0.03,,2013-02-16 10:01:00,
2013-02-16 05:11:00,32.0,29.0,29.88,NNE,29,2.0,6.0,89,0.00,,,0.03,,2013-02-16 10:11:00,
2013-02-16 05:21:00,32.0,29.0,29.89,NE,34,1.0,5.0,89,0.00,,,0.03,,2013-02-16 10:21:00,
2013-02-16 05:32:00,32.0,29.0,29.89,NE,50,0.0,2.0,89,0.00,,,0.03,,2013-02-16 10:32:00,
2013-02-16 05:42:00,32.0,29.0,29.89,NE,50,0.0,2.0,89,0.00,,,0.03,,2013-02-16 10:42:00,
2013-02-16 05:51:00,32.0,29.0,29.90,NE,51,0.0,2.0,89,0.00,,,0.03,,2013-02-16 10:51:00,
2013-02-16 06:02:00,32.0,29.0,29.90,NE,51,0.0,2.0,89,0.00,,,0.03,,2013-02-16 11:02:00,
2013-02-16 06:11:00,32.0,29.0,29.90,NE,51,0.0,2.0,89,0.00,,,0.03,,2013-02-16 11:11:00,
2013-02-16 06:22:00,31.0,28.0,29.91,ENE,57,0.0,4.0,89,0.00,,,0.03,,2013-02-16 11:22:00,
2013-02-16 06:32:00,31.0,28.0,29.90,NNE,21,2.0,6.0,89,0.00,,,0.03,,2013-02-16 11:32:00,
2013-02-16 06:42:00,31.0,28.0,29.90,NNE,21,2.0,6.0,89,0.00,,,0.03,,2013-02-16 11:42:00,
2013-02-16 06:52:00,31.0,28.0,29.90,NNE,33,5.0,7.0,89,0.00,,,0.03,,2013-02-16 11:52:00,
2013-02-16 07:02:00,31.0,28.0,29.90,NE,56,3.0,10.0,89,0.00,,,0.03,,2013-02-16 12:02:00,
2013-02-16 07:12:00,31.0,28.0,29.90,NE,56,3.0,10.0,89,0.00,,,0.03,,2013-02-16 12:12:00,
2013-02-16 07:22:00,30.0,27.0,29.90,NNE,30,3.0,7.0,89,0.00,,,0.03,,2013-02-16 12:22:00,
2013-02-16 07:32:00,30.0,27.0,29.90,NE,41,1.0,4.0,89,0.00,,,0.03,,2013-02-16 12:32:00,
2013-02-16 07:42:00,30.0,27.0,29.90,NE,41,1.0,4.0,89,0.00,,,0.03,,2013-02-16 12:42:00,
2013-02-16 07:52:00,30.0,27.0,29.90,NE,40,2.0,4.0,88,0.00,,,0.03,,2013-02-16 12:52:00,
2013-02-16 08:02:00,30.0,27.0,29.90,NE,40,2.0,4.0,88,0.00,,,0.03,,2013-02-16 13:02:00,
2013-02-16 08:12:00,30.0,27.0,29.91,NE,40,3.0,5.0,88,0.00,,,0.03,,2013-02-16 13:12:00,
2013-02-16 08:21:00,30.0,27.0,29.91,NE,40,3.0,5.0,88,0.00,,,0.03,,2013-02-16 13:21:00,
2013-02-16 08:32:00,30.0,27.0,29.91,North,11,4.0,6.0,87,0.00,,,0.03,,2013-02-16 13:32:00,
2013-02-16 08:42:00,30.0,27.0,29.91,North,11,4.0,6.0,87,0.00,,,0.03,,2013-02-16 13:42:00,
2013-02-16 08:52:00,30.0,26.0,29.90,NNE,31,3.0,6.0,86,0.00,,,0.00,,2013-02-16 13:52:00,
2013-02-16 09:01:00,30.0,26.0,29.91,NE,37,3.0,6.0,84,0.00,,,0.00,,2013-02-16 14:01:00,
2013-02-16 09:11:00,30.0,26.0,29.91,NE,37,3.0,6.0,84,0.00,,,0.00,,2013-02-16 14:11:00,
2013-02-16 09:21:00,31.0,26.0,29.90,NNE,25,3.0,9.0,83,0.00,,,0.00,,2013-02-16 14:21:00,
2013-02-16 09:32:00,31.0,26.0,29.90,NNE,27,3.0,8.0,81,0.00,,,0.00,,2013-02-16 14:32:00,
2013-02-16 09:42:00,31.0,26.0,29.90,NNE,27,3.0,8.0,81,0.00,,,0.00,,2013-02-16 14:42:00,
2013-02-16 09:52:00,32.0,26.0,29.91,NNE,30,2.0,8.0,77,0.00,,,0.00,,2013-02-16 14:52:00,
2013-02-16 10:02:00,32.0,25.0,29.91,NNE,32,3.0,7.0,76,0.00,,,0.00,,2013-02-16 15:02:00,
2013-02-16 10:11:00,32.0,25.0,29.91,NNE,32,3.0,7.0,76,0.00,,,0.00,,2013-02-16 15:11:00,
2013-02-16 10:22:00,32.0,24.0,29.89,NNE,25,4.0,9.0,73,0.01,,,0.01,,2013-02-16 15:22:00,
2013-02-16 10:32:00,32.0,23.0,29.89,NNE,27,4.0,7.0,69,0.00,,,0.01,,2013-02-16 15:32:00,
2013-02-16 10:42:00,32.0,23.0,29.89,NNE,27,4.0,7.0,69,0.00,,,0.01,,2013-02-16 15:42:00,
2013-02-16 10:52:00,32.0,23.0,29.89,NNE,31,3.0,10.0,69,0.01,,,0.02,,2013-02-16 15:52:00,
2013-02-16 11:01:00,33.0,23.0,29.89,NNE,29,5.0,9.0,67,0.01,,,0.02,,2013-02-16 16:01:00,
2013-02-16 11:11:00,33.0,23.0,29.89,NNE,29,5.0,9.0,67,0.01,,,0.02,,2013-02-16 16:11:00,
2013-02-16 11:21:00,33.0,23.0,29.89,North,6,2.0,11.0,67,0.01,,,0.02,,2013-02-16 16:21:00,
2013-02-16 11:32:00,35.0,24.0,29.88,NE,39,3.0,6.0,64,0.00,,,0.02,,2013-02-16 16:32:00,
2013-02-16 11:42:00,35.0,24.0,29.88,NE,39,3.0,6.0,64,0.00,,,0.02,,2013-02-16 16:42:00,
2013-02-16 11:51:00,34.0,23.0,29.88,NE,52,3.0,6.0,63,0.00,,,0.02,,2013-02-16 16:51:00,
2013-02-16 12:01:00,34.0,23.0,29.87,NNE,23,4.0,8.0,63,0.00,,,0.02,,2013-02-16 17:01:00,
2013-02-16 12:11:00,34.0,23.0,29.87,NNE,23,4.0,8.0,63,0.00,,,0.02,,2013-02-16 17:11:00,
2013-02-16 12:22:00,34.0,22.0,29.86,NE,51,7.0,10.0,60,0.00,,,0.02,,2013-02-16 17:22:00,
2013-02-16 12:32:00,34.0,22.0,29.86,NE,41,4.0,10.0,61,0.00,,,0.02,,2013-02-16 17:32:00,
2013-02-16 12:42:00,34.0,22.0,29.86,NE,41,4.0,10.0,61,0.00,,,0.02,,2013-02-16 17:42:00,
2013-02-16 12:52:00,35.0,23.0,29.85,NE,39,2.0,7.0,60,0.00,,,0.02,,2013-02-16 17:52:00,
2013-02-16 13:02:00,34.0,22.0,29.85,NE,42,6.0,10.0,60,0.00,,,0.02,,2013-02-16 18:02:00,
2013-02-16 13:11:00,35.0,22.0,29.85,NNE,24,3.0,7.0,59,0.00,,,0.02,,2013-02-16 18:11:00,
2013-02-16 13:21:00,35.0,22.0,29.85,NNE,24,3.0,7.0,59,0.00,,,0.02,,2013-02-16 18:21:00,
2013-02-16 13:33:00,36.0,23.0,29.84,NW,318,3.0,8.0,58,0.00,,,0.02,,2013-02-16 18:33:00,
2013-02-16 13:42:00,36.0,23.0,29.84,NW,318,3.0,8.0,58,0.00,,,0.02,,2013-02-16 18:42:00,
2013-02-16 13:52:00,36.0,22.0,29.84,North,354,2.0,5.0,56,0.00,,,0.02,,2013-02-16 18:52:00,
2013-02-16 14:02:00,36.0,22.0,29.84,NW,318,2.0,7.0,56,0.00,,,0.02,,2013-02-16 19:02:00,
2013-02-16 14:11:00,36.0,22.0,29.84,NW,318,2.0,7.0,56,0.00,,,0.02,,2013-02-16 19:11:00,
2013-02-16 14:21:00,36.0,21.0,29.83,NNE,23,1.0,7.0,55,0.00,,,0.02,,2013-02-16 19:21:00,
2013-02-16 14:32:00,35.0,20.0,29.83,NNE,20,2.0,7.0,53,0.00,,,0.02,,2013-02-16 19:32:00,
2013-02-16 14:42:00,35.0,20.0,29.83,NNE,20,2.0,7.0,53,0.00,,,0.02,,2013-02-16 19:42:00,
2013-02-16 14:52:00,36.0,21.0,29.82,North,355,2.0,7.0,55,0.00,,,0.02,,2013-02-16 19:52:00,
2013-02-16 15:01:00,36.0,22.0,29.81,NNE,31,1.0,7.0,56,0.00,,,0.02,,2013-02-16 20:01:00,
2013-02-16 15:11:00,36.0,21.0,29.80,NNE,19,1.0,6.0,53,0.00,,,0.02,,2013-02-16 20:11:00,
2013-02-16 15:21:00,36.0,21.0,29.80,NNE,19,1.0,6.0,53,0.00,,,0.02,,2013-02-16 20:21:00,
2013-02-16 15:32:00,35.0,20.0,29.80,NE,37,3.0,6.0,55,0.00,,,0.02,,2013-02-16 20:32:00,
2013-02-16 15:42:00,35.0,20.0,29.80,NE,37,3.0,6.0,55,0.00,,,0.02,,2013-02-16 20:42:00,
2013-02-16 15:52:00,35.0,20.0,29.80,NE,51,2.0,9.0,55,0.00,,,0.02,,2013-02-16 20:52:00,
2013-02-16 16:02:00,34.0,19.0,29.81,NE,37,2.0,7.0,54,0.00,,,0.02,,2013-02-16 21:02:00,
2013-02-16 16:11:00,34.0,19.0,29.81,NE,37,2.0,7.0,54,0.00,,,0.02,,2013-02-16 21:11:00,
2013-02-16 16:21:00,34.0,19.0,29.82,NNE,24,3.0,8.0,54,0.00,,,0.02,,2013-02-16 21:21:00,
2013-02-16 16:32:00,34.0,20.0,29.82,NNE,14,2.0,4.0,55,0.00,,,0.02,,2013-02-16 21:32:00,
2013-02-16 16:42:00,34.0,20.0,29.82,NNE,14,2.0,4.0,55,0.00,,,0.02,,2013-02-16 21:42:00,
2013-02-16 16:52:00,34.0,20.0,29.82,NE,39,1.0,5.0,56,0.00,,,0.02,,2013-02-16 21:52:00,
2013-02-16 17:01:00,33.0,19.0,29.80,North,1,1.0,8.0,56,0.00,,,0.02,,2013-02-16 22:01:00,
2013-02-16 17:11:00,33.0,19.0,29.80,North,1,1.0,8.0,56,0.00,,,0.02,,2013-02-16 22:11:00,
2013-02-16 17:21:00,33.0,19.0,29.80,NNE,25,3.0,8.0,56,0.00,,,0.02,,2013-02-16 22:21:00,
2013-02-16 17:32:00,33.0,19.0,29.80,NNE,25,5.0,9.0,56,0.00,,,0.02,,2013-02-16 22:32:00,
2013-02-16 17:42:00,33.0,19.0,29.80,NNE,25,5.0,9.0,56,0.00,,,0.02,,2013-02-16 22:42:00,
2013-02-16 17:51:00,32.0,18.0,29.80,NNE,17,1.0,7.0,56,0.00,,,0.02,,2013-02-16 22:51:00,
2013-02-16 18:02:00,32.0,19.0,29.80,NNE,29,0.0,6.0,58,0.00,,,0.02,,2013-02-16 23:02:00,
2013-02-16 18:11:00,32.0,19.0,29.80,NE,40,5.0,8.0,58,0.00,,,0.02,,2013-02-16 23:11:00,
2013-02-16 18:21:00,32.0,19.0,29.80,NE,40,5.0,8.0,58,0.00,,,0.02,,2013-02-16 23:21:00,
2013-02-16 18:32:00,32.0,19.0,29.80,NNE,22,3.0,9.0,58,0.00,,,0.02,,2013-02-16 23:32:00,
2013-02-16 18:42:00,32.0,19.0,29.80,NNE,22,3.0,9.0,58,0.00,,,0.02,,2013-02-16 23:42:00,
2013-02-16 18:52:00,31.0,18.0,29.79,NNE,17,3.0,8.0,57,0.00,,,0.02,,2013-02-16 23:52:00,
2013-02-16 19:02:00,31.0,18.0,29.79,North,11,3.0,6.0,58,0.00,,,0.02,,2013-02-17 00:02:00,
2013-02-16 19:12:00,31.0,18.0,29.79,North,11,3.0,6.0,58,0.00,,,0.02,,2013-02-17 00:12:00,
2013-02-16 19:22:00,31.0,18.0,29.78,NE,52,2.0,7.0,58,0.00,,,0.02,,2013-02-17 00:22:00,
2013-02-16 19:32:00,31.0,17.0,29.79,NNE,22,2.0,11.0,56,0.00,,,0.02,,2013-02-17 00:32:00,
2013-02-16 19:42:00,31.0,17.0,29.79,NNE,22,2.0,11.0,56,0.00,,,0.02,,2013-02-17 00:42:00,
2013-02-16 19:52:00,30.0,16.0,29.79,NNE,32,4.0,11.0,56,0.00,,,0.02,,2013-02-17 00:52:00,
2013-02-16 20:01:00,30.0,16.0,29.78,NE,41,3.0,7.0,56,0.00,,,0.02,,2013-02-17 01:01:00,
2013-02-16 20:11:00,30.0,16.0,29.78,NE,41,3.0,7.0,56,0.00,,,0.02,,2013-02-17 01:11:00,
2013-02-16 20:21:00,30.0,16.0,29.78,NE,38,2.0,11.0,55,0.00,,,0.02,,2013-02-17 01:21:00,
2013-02-16 20:31:00,30.0,15.0,29.78,NE,36,4.0,10.0,54,0.00,,,0.02,,2013-02-17 01:31:00,
2013-02-16 20:41:00,30.0,15.0,29.78,NE,36,4.0,10.0,54,0.00,,,0.02,,2013-02-17 01:41:00,
2013-02-16 20:52:00,30.0,15.0,29.77,NNE,13,3.0,7.0,54,0.00,,,0.02,,2013-02-17 01:52:00,
2013-02-16 21:01:00,29.0,14.0,29.77,NNE,22,2.0,10.0,53,0.00,,,0.02,,2013-02-17 02:01:00,
2013-02-16 21:11:00,29.0,14.0,29.77,NNE,22,2.0,10.0,53,0.00,,,0.02,,2013-02-17 02:11:00,
2013-02-16 21:21:00,29.0,14.0,29.77,NNE,33,5.0,14.0,52,0.00,,,0.02,,2013-02-17 02:21:00,
2013-02-16 21:31:00,29.0,14.0,29.77,NE,36,6.0,10.0,52,0.00,,,0.02,,2013-02-17 02:31:00,
2013-02-16 21:41:00,29.0,14.0,29.77,NE,36,6.0,10.0,52,0.00,,,0.02,,2013-02-17 02:41:00,
2013-02-16 21:52:00,29.0,13.0,29.76,NNE,33,6.0,11.0,51,0.00,,,0.02,,2013-02-17 02:52:00,
2013-02-16 22:02:00,29.0,14.0,29.76,NE,36,3.0,11.0,52,0.00,,,0.02,,2013-02-17 03:02:00,
2013-02-16 22:11:00,29.0,14.0,29.76,NE,36,3.0,11.0,52,0.00,,,0.02,,2013-02-17 03:11:00,
2013-02-16 22:21:00,29.0,14.0,29.76,NE,36,3.0,11.0,52,0.00,,,0.02,,2013-02-17 03:21:00,
2013-02-16 22:32:00,29.0,13.0,29.74,NNE,13,2.0,12.0,50,0.00,,,0.02,,2013-02-17 03:32:00,
2013-02-16 22:42:00,29.0,13.0,29.74,NNE,13,2.0,12.0,50,0.00,,,0.02,,2013-02-17 03:42:00,
2013-02-16 22:51:00,29.0,13.0,29.74,NNE,15,4.0,9.0,50,0.00,,,0.02,,2013-02-17 03:51:00,
2013-02-16 23:01:00,29.0,13.0,29.73,NNE,18,5.0,14.0,50,0.00,,,0.02,,2013-02-17 04:01:00,
2013-02-16 23:11:00,28.0,12.0,29.72,NNE,23,6.0,12.0,51,0.00,,,0.02,,2013-02-17 04:11:00,
2013-02-16 23:21:00,28.0,12.0,29.72,NNE,23,6.0,12.0,51,0.00,,,0.02,,2013-02-17 04:21:00,
2013-02-16 23:31:00,28.0,12.0,29.71,NNE,18,6.0,14.0,51,0.00,,,0.02,,2013-02-17 04:31:00,
2013-02-16 23:41:00,28.0,12.0,29.71,NNE,18,6.0,14.0,51,0.00,,,0.02,,2013-02-17 04:41:00,
2013-02-16 23:51:00,28.0,13.0,29.69,North,9,3.0,11.0,52,0.00,,,0.02,,2013-02-17 04:51:00,